Location: Lahas
(43.5538°N, 0.8906°E)
Time: 08:39:29
(UTC+00:00)

NOSS 3-4 (A) - Pass Details

Date: 15 May 2026
Orbit: 769 x 1442 km, 63.4° (Epoch: 10 January)

Event Time Altitude Azimuth Distance (km) Brightness Sun altitude
Rises 22:31:12 0° 318° (NW) 3,795 7.7 -24.7°
Reaches altitude 10° 22:33:47 10° 312° (NW) 2,933 6.8 -24.8°
Maximum altitude 22:40:24 45° 243° (WSW) 1,610 4.5 -25.2°
Enters shadow 22:42:31 37° 206° (SSW) 1,845 4.5 -25.4°
